Weather History for KEUG - February, 2012

Change the Weather History Date:

Sunday, February 19, 2012

  Actual Average Record
Temperature  
Mean Temperature 41 °F 43 °F  
Max Temperature 49 °F 52 °F 72 °F (1995)
Min Temperature 33 °F 35 °F 18 °F (2006)
Degree Days  
Heating Degree Days 24 22  
Month to date heating degree days 441 428  
Since 1 July heating degree days 3046 3138  
Cooling Degree Days 0 0  
Month to date cooling degree days 0 0  
Year to date cooling degree days 0 0  
Moisture  
Dew Point 34 °F    
Average Humidity 69    
Maximum Humidity 96    
Minimum Humidity 42    
Precipitation  
Precipitation 0.16 in 0.20 in 1.78 in (1992)
Month to date precipitation 1.55 3.72  
Year to date precipitation 9.67 10.59  
Snow  
Snow 0.00 in - - ()
Month to date snowfall 0.0  
Since 1 July snowfall 0.0  
Snow Depth 0.00 in    
Sea Level Pressure  
Sea Level Pressure 30.08 in    
Wind  
Wind Speed 6 mph (South)    
Max Wind Speed 13 mph    
Max Gust Speed 15 mph    
Visibility 10 miles    
Events Rain    
T = Trace of Precipitation, MM = Missing Value Source: NWS Daily Summary

Daily Weather History Graph

Daily Weather History Graph

Search for Another Location

Airport or City:

Trip Planner

Search our weather history database for the weather conditions in past years. The results will help you decide how hot, cold, wet, or windy it might be!

Date:

Astronomy

Feb. 19, 2012 Rise Set
Actual Time 7:06 AM PST 5:47 PM PST
Civil Twilight 6:37 AM PST 6:16 PM PST
Nautical Twilight 6:03 AM PST 6:50 PM PST
Astronomical Twilight 5:30 AM PST 7:24 PM PST
Moon 5:34 AM PST (2/19) 3:52 PM PST (2/19)
Length of Visible Light 11h 39m
Length of Day
10h 40m
Waning Crescent, 5% of the Moon is Illuminated
Feb 19
Waning Crescent
Feb 21
New
Feb 29
First Quarter
Mar 8
Full
Mar 14
Last Quarter

Hourly Weather History & Observations

Time (PST) Temp. Windchill Dew Point Humidity Pressure Visibility Wind Dir Wind Speed Gust Speed Precip Events Conditions
12:54 AM 33.1 °F 27.7 °F 32.0 °F 96% 30.24 in 10.0 mi South 5.8 mph - N/A   Scattered Clouds
1:54 AM 35.1 °F 30.1 °F 33.1 °F 92% 30.24 in 10.0 mi South 5.8 mph - N/A   Overcast
2:54 AM 36.0 °F 33.3 °F 33.1 °F 89% 30.23 in 10.0 mi South 3.5 mph - N/A   Overcast
3:54 AM 37.0 °F 33.3 °F 34.0 °F 89% 30.22 in 10.0 mi Variable 4.6 mph - N/A   Overcast
4:54 AM 35.6 °F 31.7 °F 33.8 °F 93% 30.20 in 10.0 mi South 4.6 mph - N/A   Overcast
5:54 AM 34.0 °F 31.0 °F 30.9 °F 89% 30.20 in 10.0 mi South 3.5 mph - N/A   Scattered Clouds
6:54 AM 35.1 °F 29.3 °F 33.1 °F 92% 30.18 in 10.0 mi SSE 6.9 mph - N/A   Overcast
7:54 AM 36.0 °F 30.3 °F 34.0 °F 93% 30.17 in 10.0 mi South 6.9 mph - N/A   Mostly Cloudy
8:54 AM 39.0 °F 34.0 °F 35.1 °F 86% 30.17 in 10.0 mi South 6.9 mph - N/A   Mostly Cloudy
9:54 AM 41.0 °F 39.0 °F 35.1 °F 79% 30.16 in 10.0 mi SSW 3.5 mph - N/A   Mostly Cloudy
10:54 AM 44.1 °F - 36.0 °F 73% 30.15 in 10.0 mi Calm Calm - N/A   Overcast
11:54 AM 46.0 °F 43.1 °F 32.0 °F 58% 30.12 in 10.0 mi SSW 5.8 mph - N/A   Overcast
12:54 PM 46.9 °F - 30.0 °F 52% 30.10 in 10.0 mi SSW 6.9 mph - N/A   Overcast
1:54 PM 46.9 °F - 28.9 °F 50% 30.07 in 10.0 mi South 10.4 mph - N/A   Overcast
2:54 PM 48.0 °F - 28.9 °F 48% 30.04 in 10.0 mi SSW 5.8 mph - N/A   Overcast
3:54 PM 48.0 °F - 27.0 °F 44% 30.01 in 10.0 mi SSW 8.1 mph - N/A   Overcast
4:54 PM 46.0 °F 42.5 °F 30.0 °F 54% 29.99 in 10.0 mi South 6.9 mph - N/A   Overcast
5:54 PM 44.1 °F 40.8 °F 33.1 °F 65% 29.99 in 10.0 mi South 5.8 mph - N/A   Overcast
6:54 PM 44.1 °F 41.5 °F 33.1 °F 65% 29.95 in 10.0 mi SSE 4.6 mph - N/A   Overcast
7:54 PM 44.1 °F 40.1 °F 35.1 °F 71% 29.95 in 10.0 mi South 6.9 mph - 0.00 in Rain Light Rain
8:54 PM 42.1 °F 37.7 °F 37.0 °F 82% 29.96 in 10.0 mi South 6.9 mph - 0.02 in Rain Rain
9:54 PM 42.1 °F 36.1 °F 37.9 °F 85% 29.98 in 7.0 mi SE 10.4 mph - 0.05 in Rain Rain
10:18 PM 41.0 °F 34.7 °F 37.4 °F 87% 29.97 in 10.0 mi SE 10.4 mph - 0.03 in Rain Light Rain
10:54 PM 41.0 °F 35.2 °F 37.9 °F 89% 29.97 in 9.0 mi SSE 9.2 mph - 0.04 in Rain Rain
11:36 PM 39.2 °F 33.0 °F 37.4 °F 93% 29.96 in 10.0 mi SSE 9.2 mph - 0.04 in Rain Light Rain
11:54 PM 39.9 °F 32.9 °F 37.0 °F 89% 29.97 in 10.0 mi SSE 11.5 mph - 0.05 in Rain Light Rain